| time (UTC) | temp F | wind direction | speed MPH | gust MPH | rain 1hr in | rain 24hr in | rain mn in | humidity % | barometer mb |
| 20260903044649 | 65 | 179 | 0.0 | 2.0 | 0.47 | 0.87 | 0.47 | 98 | 1017.3 |
| 20260903044608 | 64 | 158 | 0.0 | 2.0 | 0.47 | 0.87 | 0.47 | 98 | 1014.5 |
| 20260903043002 | 64 | 85 | 1.0 | 7.0 | 0.46 | 0.86 | 0.46 | 98 | 1015.3 |
| 20260903042845 | 65 | 20 | 2.0 | 8.0 | 0.45 | 0.84 | 0.45 | 98 | 1018.2 |
| 20260903041948 | 64 | 330 | 4.0 | 8.0 | 0.40 | 0.76 | 0.37 | 98 | 1018.7 |
| 20260903041617 | 64 | 330 | 5.0 | 10.0 | 0.27 | 0.63 | 0.23 | 98 | 1016.3 |
| 20260903041045 | 65 | 339 | 4.0 | 9.0 | 0.09 | 0.45 | 0.06 | 98 | 1019.7 |
| 20260903040144 | 65 | 311 | 2.0 | 4.0 | 0.04 | 0.40 | 0.00 | 98 | 1019.3 |
| 20260903040003 | 64 | 233 | 0.0 | 4.0 | 0.04 | 0.40 | 0.00 | 98 | 1016.3 |
| 20260903035245 | 65 | 334 | 0.0 | 3.0 | 0.04 | 0.40 | 0.40 | 98 | 1018.5 |
| 20260903034603 | 65 | 313 | 0.0 | 0.0 | 0.04 | 0.40 | 0.40 | 98 | 1015.3 |
| 20260903034344 | 65 | 0 | 0.0 | 0.0 | 0.04 | 0.40 | 0.40 | 98 | 1018.2 |
| 20260903033002 | 65 | 313 | 0.0 | 3.0 | 0.03 | 0.39 | 0.39 | 98 | 1016.0 |
| 20260903032544 | 66 | 192 | 1.0 | 2.0 | 0.01 | 0.37 | 0.38 | 98 | 1018.8 |
| 20260903031644 | 66 | 181 | 0.0 | 1.0 | 0.00 | 0.36 | 0.36 | 98 | 1018.8 |
| 20260903031619 | 65 | 181 | 0.0 | 0.0 | 0.00 | 0.36 | 0.36 | 98 | 1016.0 |
| 20260903030003 | 65 | 181 | 0.0 | 0.0 | 0.00 | 0.36 | 0.36 | 97 | 1015.8 |
| 20260903025844 | 66 | 0 | 0.0 | 0.0 | 0.00 | 0.36 | 0.36 | 97 | 1018.9 |
| 20260903024602 | 66 | 181 | 0.0 | 1.0 | 0.00 | 0.36 | 0.36 | 97 | 1016.0 |
| 20260903024044 | 66 | 0 | 0.0 | 0.0 | 0.01 | 0.36 | 0.36 | 97 | 1018.7 |
| 20260903023144 | 66 | 176 | 0.0 | 1.0 | 0.01 | 0.36 | 0.36 | 96 | 1019.0 |
| 20260903023002 | 66 | 177 | 0.0 | 1.0 | 0.01 | 0.36 | 0.36 | 96 | 1016.0 |
| 20260903021602 | 66 | 174 | 0.0 | 2.0 | 0.01 | 0.36 | 0.36 | 94 | 1015.2 |
| 20260903020444 | 68 | 339 | 2.0 | 7.0 | 0.01 | 0.36 | 0.36 | 93 | 1017.4 |
| 20260903020002 | 68 | 323 | 2.0 | 9.0 | 0.01 | 0.36 | 0.36 | 92 | 1014.6 |
| 20260903014644 | 70 | 334 | 3.0 | 12.0 | 0.01 | 0.36 | 0.36 | 96 | 1018.5 |
| 20260903014611 | 70 | 242 | 5.0 | 12.0 | 0.01 | 0.36 | 0.36 | 96 | 1015.4 |
| 20260903013744 | 71 | 0 | 0.0 | 0.0 | 0.00 | 0.35 | 0.35 | 98 | 1018.2 |
| 20260903013003 | 71 | 163 | 0.0 | 2.0 | 0.00 | 0.35 | 0.35 | 98 | 1015.3 |
| 20260903012844 | 71 | 122 | 0.0 | 2.0 | 0.00 | 0.35 | 0.35 | 98 | 1018.5 |
| 20260903011944 | 71 | 206 | 1.0 | 7.0 | 0.04 | 0.35 | 0.35 | 98 | 1018.6 |
| 20260903011614 | 70 | 232 | 0.0 | 7.0 | 0.04 | 0.35 | 0.35 | 98 | 1015.6 |
| 20260903011044 | 70 | 192 | 0.0 | 2.0 | 0.04 | 0.35 | 0.35 | 98 | 1018.1 |
| 20260903010144 | 70 | 0 | 0.0 | 0.0 | 0.04 | 0.35 | 0.35 | 97 | 1017.9 |
| 20260903010003 | 70 | 166 | 0.0 | 1.0 | 0.04 | 0.35 | 0.35 | 97 | 1014.7 |
| 20260903005244 | 70 | 0 | 0.0 | 0.0 | 0.04 | 0.35 | 0.35 | 96 | 1017.4 |
| 20260903004602 | 70 | 167 | 0.0 | 1.0 | 0.04 | 0.35 | 0.35 | 96 | 1014.3 |
| 20260903004344 | 71 | 166 | 0.0 | 1.0 | 0.04 | 0.35 | 0.35 | 95 | 1017.5 |
| 20260903003003 | 72 | 163 | 0.0 | 6.0 | 0.04 | 0.35 | 0.35 | 97 | 1014.5 |
| 20260903001602 | 72 | 156 | 1.0 | 4.0 | 0.00 | 0.31 | 0.31 | 97 | 1013.0 |
| 20260903000004 | 73 | 228 | 0.0 | 2.0 | 0.00 | 0.31 | 0.31 | 96 | 1013.5 |
| 20260902235844 | 73 | 198 | 0.0 | 1.0 | 0.00 | 0.31 | 0.31 | 96 | 1016.9 |
| 20260902234944 | 74 | 167 | 0.0 | 2.0 | 0.00 | 0.31 | 0.31 | 96 | 1017.6 |
| 20260902234602 | 73 | 150 | 0.0 | 1.0 | 0.00 | 0.31 | 0.31 | 96 | 1014.5 |
| 20260902234044 | 74 | 189 | 0.0 | 2.0 | 0.00 | 0.31 | 0.31 | 95 | 1017.8 |
| 20260902233005 | 74 | 196 | 0.0 | 2.0 | 0.00 | 0.31 | 0.31 | 95 | 1014.5 |
| 20260902232244 | 74 | 150 | 0.0 | 1.0 | 0.00 | 0.31 | 0.31 | 95 | 1017.8 |
| 20260902231612 | 74 | 153 | 0.0 | 2.0 | 0.00 | 0.31 | 0.31 | 95 | 1014.7 |
| 20260902231344 | 74 | 142 | 0.0 | 2.0 | 0.00 | 0.31 | 0.31 | 95 | 1017.9 |
| 20260902230444 | 75 | 187 | 0.0 | 5.0 | 0.00 | 0.31 | 0.31 | 94 | 1017.7 |
| 20260902230002 | 74 | 151 | 0.0 | 2.0 | 0.00 | 0.31 | 0.31 | 94 | 1014.2 |
| 20260902225544 | 75 | 166 | 0.0 | 2.0 | 0.00 | 0.31 | 0.31 | 94 | 1017.4 |
| 20260902224644 | 75 | 194 | 0.0 | 3.0 | 0.00 | 0.31 | 0.31 | 93 | 1017.1 |
| 20260902224607 | 75 | 167 | 0.0 | 3.0 | 0.00 | 0.31 | 0.31 | 93 | 1013.9 |
| 20260902223744 | 75 | 179 | 0.0 | 2.0 | 0.00 | 0.31 | 0.31 | 93 | 1017.1 |
| 20260902223004 | 75 | 156 | 0.0 | 2.0 | 0.00 | 0.31 | 0.31 | 92 | 1013.9 |
| 20260902222844 | 76 | 181 | 1.0 | 2.0 | 0.00 | 0.31 | 0.31 | 92 | 1017.3 |
| 20260902221944 | 76 | 184 | 1.0 | 3.0 | 0.00 | 0.31 | 0.31 | 91 | 1017.4 |
| 20260902221627 | 76 | 163 | 0.0 | 3.0 | 0.00 | 0.31 | 0.31 | 91 | 1014.1 |
| 20260902221044 | 77 | 170 | 0.0 | 2.0 | 0.00 | 0.31 | 0.31 | 91 | 1017.4 |
| 20260902220002 | 78 | 167 | 1.0 | 4.0 | 0.00 | 0.31 | 0.31 | 89 | 1014.3 |
| 20260902215244 | 79 | 158 | 0.0 | 1.0 | 0.00 | 0.31 | 0.31 | 88 | 1017.7 |
| 20260902214603 | 79 | 150 | 0.0 | 1.0 | 0.00 | 0.31 | 0.31 | 87 | 1014.5 |
| 20260902213447 | 80 | 197 | 0.0 | 2.0 | 0.00 | 0.31 | 0.31 | 86 | 1017.7 |
| 20260902213004 | 79 | 201 | 0.0 | 2.0 | 0.00 | 0.31 | 0.31 | 86 | 1014.4 |
| 20260902212544 | 80 | 197 | 0.0 | 2.0 | 0.00 | 0.31 | 0.31 | 85 | 1017.9 |
| 20260902211602 | 80 | 148 | 0.0 | 1.0 | 0.01 | 0.31 | 0.31 | 84 | 1014.7 |
| 20260902210744 | 80 | 168 | 0.0 | 2.0 | 0.01 | 0.31 | 0.31 | 85 | 1018.1 |
| 20260902210007 | 79 | 169 | 0.0 | 3.0 | 0.01 | 0.31 | 0.31 | 86 | 1014.8 |
| 20260902205844 | 79 | 199 | 0.0 | 2.0 | 0.01 | 0.31 | 0.31 | 86 | 1018.2 |
| 20260902204944 | 79 | 198 | 0.0 | 2.0 | 0.01 | 0.31 | 0.31 | 86 | 1018.2 |
| 20260902204602 | 79 | 194 | 0.0 | 3.0 | 0.01 | 0.31 | 0.31 | 86 | 1015.1 |
| 20260902203144 | 79 | 208 | 0.0 | 1.0 | 0.01 | 0.31 | 0.31 | 87 | 1018.5 |
| 20260902203002 | 79 | 195 | 0.0 | 1.0 | 0.01 | 0.31 | 0.31 | 88 | 1015.2 |
| 20260902202244 | 78 | 155 | 0.0 | 1.0 | 0.01 | 0.31 | 0.31 | 87 | 1018.5 |
| 20260902201609 | 78 | 155 | 0.0 | 1.0 | 0.00 | 0.30 | 0.30 | 86 | 1015.6 |
| 20260902200444 | 79 | 129 | 0.0 | 2.0 | 0.00 | 0.30 | 0.30 | 87 | 1018.7 |
| 20260902200002 | 78 | 114 | 0.0 | 2.0 | 0.00 | 0.30 | 0.30 | 87 | 1015.4 |
| 20260902195544 | 79 | 170 | 0.0 | 3.0 | 0.00 | 0.30 | 0.30 | 86 | 1018.8 |
| 20260902194644 | 79 | 149 | 0.0 | 3.0 | 0.00 | 0.30 | 0.30 | 87 | 1018.8 |
| 20260902194603 | 78 | 155 | 0.0 | 3.0 | 0.00 | 0.30 | 0.30 | 87 | 1015.5 |
| 20260902193004 | 76 | 67 | 0.0 | 3.0 | 0.00 | 0.30 | 0.30 | 89 | 1015.4 |
| 20260902192844 | 77 | 181 | 0.0 | 3.0 | 0.00 | 0.30 | 0.30 | 90 | 1018.8 |
| 20260902191944 | 75 | 0 | 0.0 | 0.0 | 0.00 | 0.30 | 0.30 | 92 | 1019.0 |
| 20260902191634 | 75 | 130 | 0.0 | 1.0 | 0.00 | 0.30 | 0.30 | 93 | 1015.7 |
| 20260902191044 | 75 | 147 | 0.0 | 1.0 | 0.00 | 0.30 | 0.30 | 93 | 1019.1 |
| 20260902190145 | 74 | 0 | 0.0 | 0.0 | 0.00 | 0.30 | 0.30 | 94 | 1019.2 |
| 20260902190004 | 74 | 149 | 0.0 | 1.0 | 0.00 | 0.30 | 0.30 | 93 | 1015.9 |
| 20260902185244 | 73 | 149 | 0.0 | 1.0 | 0.00 | 0.30 | 0.30 | 94 | 1019.2 |
| 20260902184603 | 73 | 47 | 0.0 | 0.0 | 0.00 | 0.30 | 0.30 | 94 | 1016.3 |
| 20260902184344 | 73 | 0 | 0.0 | 0.0 | 0.01 | 0.30 | 0.30 | 95 | 1019.4 |
| 20260902183444 | 72 | 38 | 0.0 | 2.0 | 0.07 | 0.30 | 0.30 | 95 | 1019.5 |
| 20260902183005 | 72 | 47 | 0.0 | 2.0 | 0.08 | 0.30 | 0.30 | 95 | 1016.4 |
| 20260902182544 | 72 | 138 | 0.0 | 2.0 | 0.08 | 0.30 | 0.30 | 96 | 1019.6 |
| 20260902181644 | 71 | 166 | 0.0 | 1.0 | 0.13 | 0.30 | 0.30 | 98 | 1019.5 |
| 20260902181612 | 71 | 167 | 0.0 | 1.0 | 0.13 | 0.30 | 0.30 | 98 | 1016.3 |
| 20260902180006 | 70 | 126 | 0.0 | 1.0 | 0.13 | 0.30 | 0.30 | 98 | 1016.1 |
| 20260902175844 | 70 | 176 | 0.0 | 1.0 | 0.13 | 0.30 | 0.30 | 98 | 1019.4 |
| 20260902174609 | 69 | 212 | 0.0 | 3.0 | 0.13 | 0.30 | 0.30 | 97 | 1015.9 |
| 20260902174044 | 70 | 60 | 1.0 | 2.0 | 0.09 | 0.26 | 0.27 | 97 | 1019.7 |
| 20260902173144 | 70 | 68 | 1.0 | 2.0 | 0.05 | 0.22 | 0.22 | 97 | 1020.1 |
| 20260902173003 | 69 | 322 | 0.0 | 2.0 | 0.05 | 0.22 | 0.22 | 97 | 1016.6 |
| 20260902172244 | 70 | 51 | 1.0 | 3.0 | 0.03 | 0.19 | 0.20 | 96 | 1019.7 |
| 20260902171617 | 70 | 75 | 0.0 | 3.0 | 0.01 | 0.17 | 0.17 | 97 | 1016.2 |
| 20260902171344 | 70 | 85 | 0.0 | 2.0 | 0.01 | 0.17 | 0.17 | 97 | 1019.4 |
| 20260902170444 | 71 | 188 | 0.0 | 2.0 | 0.01 | 0.17 | 0.17 | 97 | 1018.9 |
| 20260902170002 | 70 | 191 | 0.0 | 2.0 | 0.01 | 0.17 | 0.17 | 97 | 1015.6 |
| 20260902165544 | 71 | 183 | 0.0 | 2.0 | 0.01 | 0.17 | 0.17 | 97 | 1019.0 |
| 20260902164606 | 70 | 176 | 0.0 | 2.0 | 0.01 | 0.17 | 0.17 | 97 | 1015.7 |
| 20260902163744 | 71 | 161 | 0.0 | 2.0 | 0.01 | 0.17 | 0.17 | 97 | 1019.2 |
| 20260902163003 | 70 | 113 | 0.0 | 2.0 | 0.01 | 0.17 | 0.17 | 97 | 1016.1 |
| 20260902162844 | 71 | 179 | 1.0 | 2.0 | 0.01 | 0.17 | 0.17 | 97 | 1019.6 |
| 20260902161944 | 71 | 174 | 0.0 | 2.0 | 0.00 | 0.16 | 0.16 | 98 | 1019.7 |
| 20260902160145 | 71 | 167 | 0.0 | 2.0 | 0.00 | 0.16 | 0.16 | 99 | 1020.2 |
| 20260902160002 | 70 | 156 | 0.0 | 2.0 | 0.00 | 0.16 | 0.16 | 99 | 1016.9 |
| 20260902155244 | 71 | 198 | 0.0 | 2.0 | 0.00 | 0.16 | 0.16 | 99 | 1020.3 |
| 20260902154602 | 70 | 224 | 0.0 | 1.0 | 0.00 | 0.16 | 0.16 | 99 | 1017.0 |
| 20260902154344 | 70 | 146 | 0.0 | 1.0 | 0.00 | 0.16 | 0.16 | 99 | 1020.3 |
| 20260902153444 | 70 | 170 | 0.0 | 3.0 | 0.00 | 0.16 | 0.16 | 99 | 1020.4 |
| 20260902153006 | 69 | 179 | 0.0 | 3.0 | 0.00 | 0.16 | 0.16 | 99 | 1016.9 |
| 20260902152544 | 69 | 179 | 1.0 | 3.0 | 0.00 | 0.16 | 0.16 | 99 | 1020.3 |
| 20260902151644 | 69 | 200 | 0.0 | 2.0 | 0.00 | 0.16 | 0.16 | 99 | 1020.1 |
| 20260902151602 | 68 | 200 | 0.0 | 2.0 | 0.00 | 0.16 | 0.16 | 99 | 1016.7 |
| 20260902150744 | 68 | 3 | 0.0 | 2.0 | 0.00 | 0.16 | 0.16 | 99 | 1019.9 |
| 20260902150003 | 68 | 6 | 0.0 | 1.0 | 0.01 | 0.16 | 0.16 | 99 | 1016.6 |
| 20260902145844 | 68 | 6 | 0.0 | 1.0 | 0.01 | 0.16 | 0.16 | 99 | 1020.0 |
| 20260902144944 | 68 | 0 | 0.0 | 0.0 | 0.02 | 0.16 | 0.16 | 99 | 1020.3 |
| 20260902144604 | 68 | 8 | 0.0 | 0.0 | 0.03 | 0.16 | 0.16 | 99 | 1017.2 |
| 20260902144044 | 68 | 0 | 0.0 | 0.0 | 0.05 | 0.16 | 0.16 | 99 | 1020.6 |
| 20260902143003 | 67 | 8 | 0.0 | 0.0 | 0.08 | 0.16 | 0.16 | 99 | 1017.3 |
| 20260902142244 | 68 | 0 | 0.0 | 0.0 | 0.10 | 0.16 | 0.16 | 99 | 1020.5 |
| 20260902141603 | 67 | 8 | 0.0 | 0.0 | 0.11 | 0.16 | 0.16 | 99 | 1017.1 |
| 20260902140444 | 68 | 9 | 0.0 | 1.0 | 0.13 | 0.16 | 0.16 | 99 | 1020.3 |
| 20260902140003 | 67 | 8 | 0.0 | 1.0 | 0.12 | 0.15 | 0.15 | 99 | 1017.1 |
| 20260902134644 | 67 | 0 | 0.0 | 0.0 | 0.12 | 0.13 | 0.13 | 99 | 1019.8 |
| 20260902134506 | 67 | 8 | 0.0 | 0.0 | 0.12 | 0.13 | 0.13 | 99 | 1016.7 |
| 20260902133744 | 67 | 25 | 0.0 | 2.0 | 0.10 | 0.10 | 0.11 | 99 | 1020.3 |
| 20260902133108 | 67 | 81 | 0.0 | 0.0 | 0.08 | 0.08 | 0.08 | 99 | 1017.4 |
| 20260902132844 | 67 | 0 | 0.0 | 0.0 | 0.07 | 0.07 | 0.07 | 99 | 1020.7 |
| 20260902131043 | 67 | 0 | 0.0 | 0.0 | 0.04 | 0.04 | 0.04 | 99 | 1020.2 |
| 20260902125244 | 67 | 0 | 0.0 | 0.0 | 0.02 | 0.02 | 0.02 | 99 | 1020.4 |
| 20260902124506 | 67 | 80 | 0.0 | 0.0 | 0.01 | 0.01 | 0.01 | 99 | 1017.1 |
| 20260902124344 | 67 | 0 | 0.0 | 0.0 | 0.01 | 0.01 | 0.01 | 99 | 1020.3 |
| 20260902123444 | 67 | 0 | 0.0 | 0.0 | 0.00 | 0.00 | 0.00 | 99 | 1020.0 |
| 20260902123107 | 67 | 81 | 0.0 | 1.0 | 0.00 | 0.00 | 0.00 | 99 | 1016.5 |
| 20260902122543 | 67 | 81 | 0.0 | 1.0 | 0.00 | 0.00 | 0.00 | 99 | 1019.6 |
| 20260902121643 | 67 | 81 | 0.0 | 1.0 | 0.00 | 0.00 | 0.00 | 99 | 1019.3 |
| 20260902121502 | 67 | 81 | 0.0 | 1.0 | 0.00 | 0.00 | 0.00 | 99 | 1016.2 |
| 20260902120744 | 67 | 0 | 0.0 | 0.0 | 0.00 | 0.00 | 0.00 | 99 | 1019.3 |
| 20260902120107 | 66 | 81 | 0.0 | 0.0 | 0.00 | 0.00 | 0.00 | 99 | 1015.9 |
| 20260902115844 | 67 | 80 | 0.0 | 1.0 | 0.00 | 0.00 | 0.00 | 99 | 1019.2 |
| 20260902114944 | 66 | 81 | 0.0 | 1.0 | 0.00 | 0.00 | 0.00 | 99 | 1019.0 |
| 20260902114510 | 66 | 81 | 0.0 | 2.0 | 0.00 | 0.00 | 0.00 | 99 | 1015.8 |
| 20260902114044 | 66 | 86 | 0.0 | 3.0 | 0.00 | 0.00 | 0.00 | 99 | 1019.2 |
| 20260902113144 | 66 | 0 | 0.0 | 0.0 | 0.00 | 0.00 | 0.00 | 99 | 1019.3 |
| 20260902113106 | 65 | 194 | 0.0 | 1.0 | 0.00 | 0.00 | 0.00 | 99 | 1016.0 |
| 20260902112243 | 65 | 0 | 0.0 | 0.0 | 0.00 | 0.00 | 0.00 | 99 | 1019.1 |
| 20260902111502 | 65 | 195 | 0.0 | 0.0 | 0.00 | 0.00 | 0.00 | 99 | 1015.6 |
| 20260902111344 | 65 | 0 | 0.0 | 0.0 | 0.00 | 0.00 | 0.00 | 99 | 1019.0 |
| 20260902105544 | 65 | 0 | 0.0 | 0.0 | 0.00 | 0.00 | 0.00 | 99 | 1018.9 |
| 20260902104644 | 65 | 0 | 0.0 | 0.0 | 0.00 | 0.00 | 0.00 | 99 | 1018.8 |
| 20260902104503 | 65 | 194 | 0.0 | 0.0 | 0.00 | 0.00 | 0.00 | 99 | 1015.5 |
| 20260902103744 | 65 | 0 | 0.0 | 0.0 | 0.00 | 0.00 | 0.00 | 99 | 1018.9 |
| 20260902103105 | 65 | 195 | 0.0 | 0.0 | 0.00 | 0.00 | 0.00 | 99 | 1015.6 |
| 20260902102844 | 66 | 0 | 0.0 | 0.0 | 0.00 | 0.00 | 0.00 | 99 | 1018.9 |
| 20260902101943 | 66 | 0 | 0.0 | 0.0 | 0.00 | 0.00 | 0.00 | 99 | 1018.9 |
| 20260902101502 | 65 | 194 | 0.0 | 0.0 | 0.00 | 0.00 | 0.00 | 99 | 1015.6 |
| 20260902101043 | 66 | 196 | 0.0 | 1.0 | 0.00 | 0.00 | 0.00 | 99 | 1019.0 |
| 20260902100143 | 66 | 102 | 0.0 | 1.0 | 0.00 | 0.00 | 0.00 | 98 | 1019.0 |
| 20260902094503 | 65 | 102 | 0.0 | 0.0 | 0.00 | 0.00 | 0.00 | 98 | 1016.0 |
| 20260902093444 | 66 | 0 | 0.0 | 0.0 | 0.00 | 0.00 | 0.00 | 98 | 1019.2 |
| 20260902093106 | 65 | 102 | 0.0 | 0.0 | 0.00 | 0.00 | 0.00 | 98 | 1016.0 |
| 20260902091644 | 66 | 0 | 0.0 | 0.0 | 0.00 | 0.00 | 0.00 | 98 | 1019.2 |
| 20260902091503 | 66 | 101 | 0.0 | 0.0 | 0.00 | 0.00 | 0.00 | 98 | 1015.9 |
| 20260902090743 | 66 | 0 | 0.0 | 0.0 | 0.00 | 0.00 | 0.00 | 98 | 1019.3 |
| 20260902090120 | 66 | 101 | 0.0 | 0.0 | 0.00 | 0.00 | 0.00 | 98 | 1016.0 |
| 20260902085844 | 67 | 0 | 0.0 | 0.0 | 0.00 | 0.00 | 0.00 | 98 | 1019.3 |
| 20260902084503 | 66 | 101 | 0.0 | 0.0 | 0.00 | 0.00 | 0.00 | 98 | 1016.2 |
| 20260902084043 | 66 | 0 | 0.0 | 0.0 | 0.00 | 0.00 | 0.00 | 98 | 1019.5 |
| 20260902083143 | 66 | 0 | 0.0 | 0.0 | 0.00 | 0.00 | 0.00 | 98 | 1019.4 |
| 20260902083106 | 66 | 102 | 0.0 | 1.0 | 0.00 | 0.00 | 0.00 | 98 | 1016.2 |
| 20260902082243 | 66 | 105 | 0.0 | 1.0 | 0.00 | 0.00 | 0.00 | 98 | 1019.3 |
| 20260902081503 | 66 | 144 | 0.0 | 1.0 | 0.00 | 0.00 | 0.00 | 98 | 1016.0 |
| 20260902081343 | 66 | 143 | 0.0 | 1.0 | 0.00 | 0.00 | 0.00 | 98 | 1019.2 |
| 20260902080443 | 66 | 143 | 0.0 | 1.0 | 0.00 | 0.00 | 0.00 | 98 | 1019.3 |
| 20260902075543 | 67 | 155 | 0.0 | 3.0 | 0.00 | 0.00 | 0.00 | 98 | 1019.3 |
| 20260902074643 | 67 | 156 | 0.0 | 1.0 | 0.00 | 0.00 | 0.00 | 98 | 1019.4 |
| 20260902074502 | 66 | 156 | 0.0 | 1.0 | 0.00 | 0.00 | 0.00 | 98 | 1016.1 |
| 20260902073104 | 66 | 162 | 0.0 | 2.0 | 0.00 | 0.00 | 0.00 | 98 | 1016.2 |
| 20260902071943 | 66 | 0 | 0.0 | 0.0 | 0.00 | 0.00 | 0.00 | 98 | 1019.4 |
| 20260902071502 | 66 | 211 | 0.0 | 0.0 | 0.00 | 0.00 | 0.00 | 98 | 1016.2 |
| 20260902071043 | 66 | 0 | 0.0 | 0.0 | 0.00 | 0.00 | 0.00 | 98 | 1019.4 |
| 20260902070143 | 66 | 0 | 0.0 | 0.0 | 0.00 | 0.00 | 0.00 | 98 | 1019.4 |
| 20260902064502 | 65 | 215 | 0.0 | 1.0 | 0.00 | 0.00 | 0.00 | 98 | 1016.4 |
| 20260902064343 | 66 | 216 | 0.0 | 1.0 | 0.00 | 0.00 | 0.00 | 97 | 1019.7 |
| 20260902063443 | 66 | 215 | 0.0 | 1.0 | 0.00 | 0.00 | 0.00 | 97 | 1019.7 |
| 20260902063102 | 66 | 215 | 0.0 | 0.0 | 0.00 | 0.00 | 0.00 | 97 | 1016.4 |
| 20260902062544 | 66 | 0 | 0.0 | 0.0 | 0.00 | 0.00 | 0.00 | 97 | 1019.6 |
| 20260902061643 | 66 | 216 | 1.0 | 2.0 | 0.00 | 0.00 | 0.00 | 97 | 1019.5 |
| 20260902061507 | 66 | 215 | 0.0 | 1.0 | 0.00 | 0.00 | 0.00 | 97 | 1016.3 |
| 20260902060743 | 66 | 216 | 0.0 | 1.0 | 0.00 | 0.00 | 0.00 | 98 | 1019.6 |
| 20260902060107 | 66 | 216 | 0.0 | 1.0 | 0.00 | 0.00 | 0.00 | 98 | 1016.3 |
| 20260902054943 | 66 | 0 | 0.0 | 0.0 | 0.00 | 0.00 | 0.00 | 98 | 1019.8 |
| 20260902054501 | 66 | 215 | 0.0 | 1.0 | 0.00 | 0.00 | 0.00 | 98 | 1016.5 |
| 20260902054043 | 66 | 216 | 0.0 | 1.0 | 0.00 | 0.00 | 0.00 | 98 | 1019.8 |
| 20260902053143 | 66 | 215 | 0.0 | 1.0 | 0.00 | 0.00 | 0.00 | 98 | 1019.9 |
| 20260902053108 | 65 | 216 | 0.0 | 1.0 | 0.00 | 0.00 | 0.00 | 98 | 1016.6 |
| 20260902052243 | 66 | 0 | 0.0 | 0.0 | 0.00 | 0.00 | 0.00 | 98 | 1019.8 |
| 20260902051502 | 66 | 215 | 0.0 | 0.0 | 0.00 | 0.00 | 0.00 | 98 | 1016.5 |
| 20260902051343 | 66 | 0 | 0.0 | 0.0 | 0.00 | 0.00 | 0.00 | 98 | 1019.7 |
| 20260902050443 | 66 | 0 | 0.0 | 0.0 | 0.00 | 0.00 | 0.00 | 98 | 1019.7 |
| 20260902050105 | 65 | 215 | 0.0 | 1.0 | 0.00 | 0.00 | 0.00 | 98 | 1016.5 |
| 20260902045543 | 66 | 216 | 0.0 | 1.0 | 0.00 | 0.00 | 0.00 | 98 | 1019.7 |